Regional Weather Roundup
Issued by NWS

Home | Current Version | Previous Version | Graphics & Text | Print | Product List | Glossary On
Versions: 1 2 3 4 5 6 7 8 9 10 11 12 13 14 15 16 17 18 19 20 21 22 23 24 25 26 27 28 29 30 31 32 33 34 35 36 37 38 39 40 41 42 43 44 45 46 47 48 49 50
684
ASUS43 KFSD 191602
RWRSD

WEATHER ROUNDUP FOR SOUTH DAKOTA
NATIONAL WEATHER SERVICE SIOUX FALLS SD
1000 AM CST MON FEB 19 2018

NOTE: "FAIR" INDICATES FEW OR NO CLOUDS BELOW 12,000 FEET WITH NO
SIGNIFICANT WEATHER AND/OR OBSTRUCTIONS TO VISIBILITY.


SDZ001>005-009-010-012>017-191700-
NORTHWEST AND NORTH CENTRAL SOUTH DAKOTA

CITY           SKY/WX    TMP DP  RH WIND       PRES   REMARKS
BUFFALO          N/A      2  -7  66 NE12      29.98R WCI -15
FAITH            N/A      0  -6  76 NE13      30.06S WCI -18
MOBRIDGE       PTSUNNY    8  -2  63 N14       30.10R WCI  -8
$$

SDZ012>016-024>037-041>051-057-063-072>074-191700-
SOUTHWEST AND SOUTH CENTRAL SOUTH DAKOTA

CITY           SKY/WX    TMP DP  RH WIND       PRES   REMARKS
RAPID CTY ARPT LGT SNOW   2  -3  80 N12       30.00F VSB 1   WCI -15
PIERRE         LGT SNOW   7   2  80 N15       30.08S WCI -10
CUSTER         HVY SNOW  -4 -10  75 NE9       29.70F VSB 1/4 WCI -20
ELLSWORTH AFB  CLOUDY     2  -2  84 N10       29.98  BLWGSNOWWCI -14
PHILIP         LGT SNOW   5   1  83 N17       30.07F VSB 1   WCI -14
PINE RIDGE     LGT SNOW   4  -2  76 NE10      29.94F VSB 3/4 WCI -11
SPEARFISH      LGT SNOW   0  -6  78 E7        29.94S WCI -13
WINNER         LGT SNOW   9   3  77 N20       30.01S WCI -10
$$

SDZ004>011-016>023-039-040-191700-
NORTHEAST SOUTH DAKOTA

CITY           SKY/WX    TMP DP  RH WIND       PRES   REMARKS
ABERDEEN       PTSUNNY   10   1  67 N20G28    30.10S WCI  -9
WATERTOWN      LGT SNOW   9   5  84 N21       29.95S FOG     WCI -11
BROOKINGS      FLURRIES  12   7  80 N17G28    29.90F WCI  -5
SISSETON         N/A      9   4  80 N21       30.08S WCI -11
$$

SDZ017-020-022-023-036>040-048>070-191700-
SOUTHEAST SOUTH DAKOTA

CITY           SKY/WX    TMP DP  RH WIND       PRES   REMARKS
SIOUX FALLS    FRZ DRZL  15  10  80 N16G31    29.87F WCI  -1
HURON          CLOUDY    10   5  80 N22G30    30.01R WCI -10
CHAMBERLAIN    CLOUDY    10   6  82 NW21G28   30.00S FOG     WCI  -9
MITCHELL       CLOUDY    13   8  81 N21       29.98S WCI  -5
YANKTON        LGT SNOW  16  12  84 N17G23    29.90S FOG     WCI   0
$$

ABBREVIATIONS USED IN REMARKS
   TC - TEMPERATURE IN CELSIUS
  WCI - WIND CHILL INDEX
   HX - HEAT INDEX
  VSB - VISIBILITY





USA.gov is the U.S. government's official web portal to all federal, state and local government web resources and services.